| time (UTC) | temp F | wind direction | speed knots | gust knots | rain 1hr in | rain 24hr in | rain mn in | humidity % | barometer mb |
| 20260510175205 | 84 | 202 | 0.0 | 0.9 | 0.00 | 0.00 | 0.00 | 40 | 1011.8 |
| 20260510174704 | 83 | 60 | 0.0 | 0.9 | 0.00 | 0.00 | 0.00 | 41 | 1011.8 |
| 20260510174205 | 83 | 9 | 0.0 | 0.0 | 0.00 | 0.00 | 0.00 | 39 | 1011.8 |
| 20260510173705 | 83 | 139 | 0.0 | 0.9 | 0.00 | 0.00 | 0.00 | 40 | 1011.8 |
| 20260510172205 | 82 | 121 | 0.0 | 2.6 | 0.00 | 0.00 | 0.00 | 41 | 1011.8 |
| 20260510171705 | 82 | 312 | 0.0 | 0.9 | 0.00 | 0.00 | 0.00 | 40 | 1011.8 |
| 20260510171204 | 82 | 314 | 0.0 | 2.6 | 0.00 | 0.00 | 0.00 | 39 | 1011.8 |
| 20260510170704 | 82 | 272 | 0.9 | 2.6 | 0.00 | 0.00 | 0.00 | 38 | 1011.8 |
| 20260510170205 | 82 | 42 | 0.9 | 2.6 | 0.00 | 0.00 | 0.00 | 39 | 1011.8 |
| 20260510165704 | 83 | 276 | 0.9 | 2.6 | 0.00 | 0.00 | 0.00 | 41 | 1011.8 |
| 20260510165205 | 82 | 112 | 0.9 | 2.6 | 0.00 | 0.00 | 0.00 | 45 | 1011.8 |
| 20260510164705 | 81 | 92 | 0.0 | 1.7 | 0.00 | 0.00 | 0.00 | 45 | 1011.8 |
| 20260510164204 | 81 | 274 | 0.9 | 2.6 | 0.00 | 0.00 | 0.00 | 42 | 1011.8 |
| 20260510163705 | 82 | 0 | 0.0 | 1.7 | 0.00 | 0.00 | 0.00 | 44 | 1012.2 |
| 20260510163205 | 82 | 287 | 0.9 | 4.3 | 0.00 | 0.00 | 0.00 | 42 | 1012.2 |
| 20260510162705 | 82 | 144 | 0.0 | 2.6 | 0.00 | 0.00 | 0.00 | 42 | 1012.2 |
| 20260510162205 | 82 | 117 | 0.0 | 0.9 | 0.00 | 0.00 | 0.00 | 41 | 1012.2 |
| 20260510161705 | 82 | 123 | 0.0 | 2.6 | 0.00 | 0.00 | 0.00 | 43 | 1012.2 |
| 20260510160704 | 82 | 120 | 0.0 | 4.3 | 0.00 | 0.00 | 0.00 | 46 | 1012.2 |
| 20260510160204 | 82 | 134 | 0.0 | 2.6 | 0.00 | 0.00 | 0.00 | 49 | 1012.2 |
| 20260510155704 | 81 | 84 | 0.9 | 2.6 | 0.00 | 0.00 | 0.00 | 45 | 1012.2 |
| 20260510155204 | 81 | 84 | 0.0 | 2.6 | 0.00 | 0.00 | 0.00 | 48 | 1012.2 |
| 20260510154704 | 80 | 30 | 0.0 | 2.6 | 0.00 | 0.00 | 0.00 | 46 | 1012.5 |
| 20260510154205 | 80 | 281 | 0.0 | 0.9 | 0.00 | 0.00 | 0.00 | 47 | 1012.5 |
| 20260510153705 | 80 | 275 | 0.0 | 0.9 | 0.00 | 0.00 | 0.00 | 46 | 1012.5 |
| 20260510153204 | 80 | 275 | 0.0 | 0.9 | 0.00 | 0.00 | 0.00 | 47 | 1012.5 |
| 20260510152704 | 80 | 262 | 0.0 | 0.9 | 0.00 | 0.00 | 0.00 | 47 | 1012.5 |
| 20260510152204 | 81 | 129 | 0.0 | 0.0 | 0.00 | 0.00 | 0.00 | 49 | 1012.5 |
| 20260510151704 | 80 | 117 | 0.0 | 0.9 | 0.00 | 0.00 | 0.00 | 48 | 1012.5 |
| 20260510151204 | 80 | 110 | 0.0 | 0.9 | 0.00 | 0.00 | 0.00 | 47 | 1012.5 |
| 20260510150704 | 80 | 112 | 0.0 | 0.9 | 0.00 | 0.00 | 0.00 | 49 | 1012.5 |
| 20260510150204 | 80 | 116 | 0.9 | 2.6 | 0.00 | 0.00 | 0.00 | 47 | 1012.5 |
| 20260510145704 | 80 | 46 | 0.0 | 0.9 | 0.00 | 0.00 | 0.00 | 50 | 1012.5 |
| 20260510145204 | 80 | 100 | 0.0 | 0.0 | 0.00 | 0.00 | 0.00 | 50 | 1012.4 |
| 20260510144704 | 79 | 100 | 0.0 | 0.9 | 0.00 | 0.00 | 0.00 | 52 | 1012.4 |
| 20260510144205 | 78 | 188 | 0.0 | 0.0 | 0.00 | 0.00 | 0.00 | 51 | 1012.4 |
| 20260510143704 | 78 | 188 | 0.0 | 0.9 | 0.00 | 0.00 | 0.00 | 48 | 1012.4 |
| 20260510143204 | 77 | 188 | 0.0 | 0.0 | 0.00 | 0.00 | 0.00 | 51 | 1012.4 |
| 20260510142704 | 76 | 110 | 0.0 | 0.0 | 0.00 | 0.00 | 0.00 | 52 | 1012.4 |
| 20260510142205 | 76 | 163 | 0.0 | 0.0 | 0.00 | 0.00 | 0.00 | 54 | 1012.4 |
| 20260510141704 | 76 | 163 | 0.0 | 0.9 | 0.00 | 0.00 | 0.00 | 53 | 1012.4 |
| 20260510140704 | 76 | 321 | 0.0 | 0.0 | 0.00 | 0.00 | 0.00 | 59 | 1012.4 |
| 20260510135704 | 74 | 52 | 0.0 | 0.0 | 0.00 | 0.00 | 0.00 | 62 | 1012.4 |
| 20260510135205 | 74 | 53 | 0.0 | 0.0 | 0.00 | 0.00 | 0.00 | 62 | 1012.4 |
| 20260510134705 | 74 | 144 | 0.0 | 0.0 | 0.00 | 0.00 | 0.00 | 64 | 1012.4 |
| 20260510134204 | 74 | 144 | 0.0 | 0.0 | 0.00 | 0.00 | 0.00 | 65 | 1012.4 |
| 20260510133704 | 73 | 57 | 0.0 | 0.0 | 0.00 | 0.00 | 0.00 | 66 | 1012.4 |
| 20260510133204 | 72 | 57 | 0.0 | 0.0 | 0.00 | 0.00 | 0.00 | 71 | 1012.4 |
| 20260510132705 | 71 | 57 | 0.0 | 0.0 | 0.00 | 0.00 | 0.00 | 70 | 1011.7 |
| 20260510132204 | 71 | 57 | 0.0 | 0.0 | 0.00 | 0.00 | 0.00 | 71 | 1011.7 |
| 20260510131704 | 70 | 57 | 0.0 | 0.0 | 0.00 | 0.00 | 0.00 | 71 | 1011.7 |
| 20260510131204 | 70 | 57 | 0.0 | 0.0 | 0.00 | 0.00 | 0.00 | 71 | 1011.7 |
| 20260510130704 | 69 | 57 | 0.0 | 0.0 | 0.00 | 0.00 | 0.00 | 72 | 1011.7 |
| 20260510130204 | 69 | 57 | 0.0 | 0.0 | 0.00 | 0.00 | 0.00 | 75 | 1011.7 |
| 20260510125204 | 67 | 60 | 0.0 | 1.7 | 0.00 | 0.00 | 0.00 | 79 | 1011.7 |
| 20260510124704 | 66 | 61 | 0.0 | 0.0 | 0.00 | 0.00 | 0.00 | 80 | 1011.7 |
| 20260510124204 | 66 | 61 | 0.0 | 0.0 | 0.00 | 0.00 | 0.00 | 82 | 1011.7 |
| 20260510123704 | 65 | 61 | 0.0 | 0.0 | 0.00 | 0.00 | 0.00 | 84 | 1011.7 |
| 20260510123204 | 64 | 31 | 0.0 | 0.0 | 0.00 | 0.00 | 0.00 | 85 | 1011.7 |
| 20260510122704 | 63 | 55 | 0.0 | 0.0 | 0.00 | 0.00 | 0.00 | 88 | 1011.7 |
| 20260510122205 | 63 | 55 | 0.0 | 0.0 | 0.00 | 0.00 | 0.00 | 89 | 1011.7 |
| 20260510121204 | 61 | 55 | 0.0 | 0.0 | 0.00 | 0.00 | 0.00 | 94 | 1011.1 |
| 20260510120705 | 60 | 55 | 0.0 | 0.0 | 0.00 | 0.00 | 0.00 | 95 | 1011.1 |
| 20260510120204 | 59 | 55 | 0.0 | 0.0 | 0.00 | 0.00 | 0.00 | 97 | 1011.1 |
| 20260510115705 | 59 | 55 | 0.0 | 0.0 | 0.00 | 0.00 | 0.00 | 97 | 1011.1 |
| 20260510115204 | 58 | 55 | 0.0 | 0.0 | 0.00 | 0.00 | 0.00 | 98 | 1011.1 |
| 20260510114204 | 57 | 55 | 0.0 | 0.0 | 0.00 | 0.00 | 0.00 | 98 | 1011.1 |
| 20260510113704 | 57 | 55 | 0.0 | 0.0 | 0.00 | 0.00 | 0.00 | 98 | 1011.1 |
| 20260510113204 | 56 | 52 | 0.0 | 0.0 | 0.00 | 0.00 | 0.00 | 98 | 1010.9 |
| 20260510112704 | 56 | 97 | 0.0 | 0.0 | 0.00 | 0.00 | 0.00 | 97 | 1010.9 |
| 20260510112204 | 55 | 97 | 0.0 | 0.0 | 0.00 | 0.00 | 0.00 | 97 | 1010.9 |
| 20260510111704 | 55 | 97 | 0.0 | 0.0 | 0.00 | 0.00 | 0.00 | 97 | 1010.9 |
| 20260510111204 | 55 | 97 | 0.0 | 0.0 | 0.00 | 0.00 | 0.00 | 97 | 1010.9 |
| 20260510110704 | 54 | 101 | 0.0 | 0.0 | 0.00 | 0.00 | 0.00 | 97 | 1010.0 |
| 20260510110204 | 54 | 101 | 0.0 | 0.0 | 0.00 | 0.00 | 0.00 | 97 | 1010.0 |
| 20260510105704 | 54 | 101 | 0.0 | 0.0 | 0.00 | 0.00 | 0.00 | 97 | 1010.0 |
| 20260510105204 | 54 | 101 | 0.0 | 0.0 | 0.00 | 0.00 | 0.00 | 97 | 1010.0 |
| 20260510104704 | 54 | 101 | 0.0 | 0.0 | 0.00 | 0.00 | 0.00 | 97 | 1010.0 |
| 20260510104204 | 53 | 101 | 0.0 | 0.0 | 0.00 | 0.00 | 0.00 | 97 | 1010.0 |
| 20260510103704 | 53 | 101 | 0.0 | 0.0 | 0.00 | 0.00 | 0.00 | 97 | 1010.0 |
| 20260510103204 | 53 | 101 | 0.0 | 0.0 | 0.00 | 0.00 | 0.00 | 97 | 1010.0 |
| 20260510102704 | 53 | 101 | 0.0 | 0.0 | 0.00 | 0.00 | 0.00 | 97 | 1010.0 |
| 20260510102205 | 53 | 101 | 0.0 | 0.0 | 0.00 | 0.00 | 0.00 | 97 | 1010.0 |
| 20260510101704 | 53 | 101 | 0.0 | 0.0 | 0.00 | 0.00 | 0.00 | 97 | 1010.0 |
| 20260510101204 | 54 | 101 | 0.0 | 0.0 | 0.00 | 0.00 | 0.00 | 96 | 1010.0 |
| 20260510100704 | 54 | 101 | 0.0 | 0.0 | 0.00 | 0.00 | 0.00 | 96 | 1009.9 |
| 20260510100204 | 54 | 101 | 0.0 | 0.0 | 0.00 | 0.00 | 0.00 | 97 | 1009.9 |
| 20260510095704 | 54 | 101 | 0.0 | 0.0 | 0.00 | 0.00 | 0.00 | 97 | 1009.8 |
| 20260510095204 | 54 | 101 | 0.0 | 0.0 | 0.00 | 0.00 | 0.00 | 96 | 1009.8 |
| 20260510094704 | 54 | 101 | 0.0 | 0.0 | 0.00 | 0.00 | 0.00 | 96 | 1009.3 |
| 20260510094204 | 54 | 101 | 0.0 | 0.0 | 0.00 | 0.00 | 0.00 | 96 | 1009.3 |
| 20260510093704 | 54 | 101 | 0.0 | 0.0 | 0.00 | 0.00 | 0.00 | 96 | 1009.3 |
| 20260510093204 | 54 | 101 | 0.0 | 0.0 | 0.00 | 0.00 | 0.00 | 96 | 1009.3 |
| 20260510092704 | 54 | 101 | 0.0 | 0.0 | 0.00 | 0.00 | 0.00 | 96 | 1009.3 |
| 20260510090704 | 55 | 101 | 0.0 | 0.0 | 0.00 | 0.00 | 0.00 | 96 | 1009.3 |
| 20260510090204 | 55 | 101 | 0.0 | 0.0 | 0.00 | 0.00 | 0.00 | 96 | 1009.3 |
| 20260510085704 | 55 | 101 | 0.0 | 0.0 | 0.00 | 0.00 | 0.00 | 96 | 1009.3 |
| 20260510085204 | 56 | 101 | 0.0 | 0.0 | 0.00 | 0.00 | 0.00 | 96 | 1009.3 |
| 20260510084704 | 56 | 101 | 0.0 | 0.0 | 0.00 | 0.00 | 0.00 | 96 | 1009.3 |
| 20260510084204 | 56 | 101 | 0.0 | 0.0 | 0.00 | 0.00 | 0.00 | 96 | 1009.3 |
| 20260510083704 | 56 | 101 | 0.0 | 0.0 | 0.00 | 0.00 | 0.00 | 96 | 1009.3 |
| 20260510082704 | 56 | 101 | 0.0 | 0.0 | 0.00 | 0.00 | 0.00 | 96 | 1008.9 |
| 20260510082204 | 56 | 101 | 0.0 | 0.0 | 0.00 | 0.00 | 0.00 | 96 | 1008.9 |
| 20260510081704 | 56 | 101 | 0.0 | 0.0 | 0.00 | 0.00 | 0.00 | 95 | 1008.9 |
| 20260510081204 | 57 | 101 | 0.0 | 0.0 | 0.00 | 0.00 | 0.00 | 95 | 1008.9 |
| 20260510080704 | 57 | 101 | 0.0 | 0.0 | 0.00 | 0.00 | 0.00 | 95 | 1008.9 |
| 20260510080204 | 57 | 101 | 0.0 | 0.0 | 0.00 | 0.00 | 0.00 | 95 | 1008.9 |
| 20260510075704 | 57 | 101 | 0.0 | 0.0 | 0.00 | 0.00 | 0.00 | 95 | 1008.9 |
| 20260510075204 | 57 | 101 | 0.0 | 0.0 | 0.00 | 0.00 | 0.00 | 95 | 1008.9 |
| 20260510074704 | 57 | 101 | 0.0 | 0.0 | 0.00 | 0.00 | 0.00 | 95 | 1008.9 |
| 20260510074204 | 58 | 101 | 0.0 | 0.0 | 0.00 | 0.00 | 0.00 | 95 | 1008.9 |
| 20260510073704 | 58 | 101 | 0.0 | 0.0 | 0.00 | 0.00 | 0.00 | 94 | 1008.9 |
| 20260510073203 | 58 | 101 | 0.0 | 0.0 | 0.00 | 0.00 | 0.00 | 94 | 1008.9 |
| 20260510072204 | 58 | 101 | 0.0 | 0.0 | 0.00 | 0.00 | 0.00 | 94 | 1008.9 |
| 20260510071204 | 59 | 101 | 0.0 | 0.0 | 0.00 | 0.00 | 0.00 | 94 | 1009.0 |
| 20260510070704 | 59 | 101 | 0.0 | 0.0 | 0.00 | 0.00 | 0.00 | 93 | 1009.0 |
| 20260510070204 | 59 | 101 | 0.0 | 0.0 | 0.00 | 0.00 | 0.00 | 93 | 1009.0 |
| 20260510065704 | 60 | 101 | 0.0 | 0.0 | 0.00 | 0.00 | 0.00 | 93 | 1009.0 |
| 20260510065204 | 60 | 101 | 0.0 | 0.0 | 0.00 | 0.00 | 0.00 | 93 | 1009.0 |
| 20260510064704 | 60 | 101 | 0.0 | 0.0 | 0.00 | 0.00 | 0.00 | 93 | 1009.0 |
| 20260510064204 | 60 | 101 | 0.0 | 0.0 | 0.00 | 0.00 | 0.00 | 93 | 1009.0 |
| 20260510063704 | 61 | 101 | 0.0 | 0.0 | 0.00 | 0.00 | 0.00 | 93 | 1009.0 |
| 20260510062704 | 61 | 101 | 0.0 | 0.0 | 0.00 | 0.00 | 0.00 | 93 | 1009.0 |
| 20260510062203 | 61 | 101 | 0.0 | 0.0 | 0.00 | 0.00 | 0.00 | 93 | 1009.1 |
| 20260510061703 | 61 | 101 | 0.0 | 0.0 | 0.00 | 0.00 | 0.00 | 93 | 1009.1 |
| 20260510060704 | 61 | 101 | 0.0 | 0.0 | 0.00 | 0.00 | 0.00 | 93 | 1009.1 |
| 20260510055704 | 61 | 101 | 0.0 | 0.0 | 0.00 | 0.00 | 0.00 | 92 | 1009.1 |
| 20260510055204 | 61 | 101 | 0.0 | 0.0 | 0.00 | 0.00 | 0.00 | 92 | 1009.1 |
| 20260510054704 | 61 | 101 | 0.0 | 0.0 | 0.00 | 0.00 | 0.00 | 92 | 1009.1 |
| 20260510054204 | 61 | 101 | 0.0 | 0.0 | 0.00 | 0.00 | 0.00 | 92 | 1009.1 |
| 20260510053204 | 61 | 101 | 0.0 | 0.0 | 0.00 | 0.00 | 0.00 | 92 | 1009.1 |
| 20260510052704 | 61 | 101 | 0.0 | 0.0 | 0.00 | 0.00 | 0.00 | 92 | 1009.1 |
| 20260510052204 | 61 | 101 | 0.0 | 0.0 | 0.00 | 0.00 | 0.00 | 92 | 1009.1 |
| 20260510051704 | 61 | 101 | 0.0 | 0.0 | 0.00 | 0.00 | 0.00 | 92 | 1009.1 |
| 20260510051204 | 61 | 101 | 0.0 | 0.0 | 0.00 | 0.00 | 0.00 | 92 | 1009.1 |
| 20260510050704 | 60 | 101 | 0.0 | 0.0 | 0.00 | 0.00 | 0.00 | 92 | 1009.1 |
| 20260510045704 | 60 | 101 | 0.0 | 0.0 | 0.00 | 0.00 | 0.00 | 91 | 1009.1 |
| 20260510045204 | 60 | 101 | 0.0 | 0.0 | 0.00 | 0.00 | 0.00 | 92 | 1009.1 |
| 20260510044204 | 60 | 101 | 0.0 | 0.0 | 0.00 | 0.00 | 0.00 | 91 | 1009.1 |
| 20260510043704 | 60 | 101 | 0.0 | 0.0 | 0.00 | 0.00 | 0.00 | 91 | 1009.0 |
| 20260510043204 | 60 | 101 | 0.0 | 0.0 | 0.00 | 0.00 | 0.00 | 90 | 1009.0 |
| 20260510042704 | 60 | 101 | 0.0 | 0.0 | 0.00 | 0.00 | 0.00 | 90 | 1009.0 |
| 20260510042203 | 60 | 101 | 0.0 | 0.0 | 0.00 | 0.00 | 0.00 | 90 | 1009.0 |
| 20260510041703 | 60 | 101 | 0.0 | 0.0 | 0.00 | 0.00 | 0.00 | 89 | 1009.0 |
| 20260510041204 | 60 | 101 | 0.0 | 0.0 | 0.00 | 0.00 | 0.00 | 89 | 1009.0 |
| 20260510040704 | 60 | 101 | 0.0 | 0.0 | 0.00 | 0.00 | 0.00 | 88 | 1009.0 |
| 20260510040204 | 60 | 101 | 0.0 | 0.0 | 0.00 | 0.00 | 0.00 | 88 | 1009.0 |
| 20260510035704 | 60 | 101 | 0.0 | 0.0 | 0.00 | 0.00 | 0.00 | 88 | 1008.8 |
| 20260510035204 | 60 | 101 | 0.0 | 0.0 | 0.00 | 0.00 | 0.00 | 88 | 1008.8 |
| 20260510034704 | 60 | 101 | 0.0 | 0.0 | 0.00 | 0.00 | 0.00 | 87 | 1008.8 |
| 20260510034203 | 60 | 101 | 0.0 | 0.0 | 0.00 | 0.00 | 0.00 | 87 | 1008.8 |
| 20260510033203 | 61 | 101 | 0.0 | 0.0 | 0.00 | 0.00 | 0.00 | 87 | 1008.8 |
| 20260510032703 | 61 | 101 | 0.0 | 0.0 | 0.00 | 0.00 | 0.00 | 87 | 1007.5 |
| 20260510032204 | 61 | 101 | 0.0 | 0.0 | 0.00 | 0.00 | 0.00 | 86 | 1007.5 |
| 20260510031703 | 61 | 101 | 0.0 | 0.0 | 0.00 | 0.00 | 0.00 | 86 | 1007.5 |
| 20260510031204 | 61 | 101 | 0.0 | 0.0 | 0.00 | 0.00 | 0.00 | 86 | 1007.5 |
| 20260510025204 | 61 | 101 | 0.0 | 0.0 | 0.00 | 0.00 | 0.00 | 85 | 1007.5 |
| 20260510024704 | 61 | 101 | 0.0 | 0.0 | 0.00 | 0.00 | 0.00 | 85 | 1007.5 |
| 20260510024203 | 61 | 101 | 0.0 | 0.0 | 0.00 | 0.00 | 0.00 | 84 | 1007.5 |
| 20260510023703 | 61 | 101 | 0.0 | 0.0 | 0.00 | 0.00 | 0.00 | 83 | 1007.5 |
| 20260510023203 | 61 | 101 | 0.0 | 0.0 | 0.00 | 0.00 | 0.00 | 83 | 1007.5 |
| 20260510022703 | 62 | 101 | 0.0 | 0.0 | 0.00 | 0.00 | 0.00 | 83 | 1007.5 |
| 20260510022204 | 62 | 101 | 0.0 | 0.0 | 0.00 | 0.00 | 0.00 | 82 | 1007.5 |
| 20260510021204 | 62 | 101 | 0.0 | 0.0 | 0.00 | 0.00 | 0.00 | 82 | 1007.5 |
| 20260510020704 | 62 | 101 | 0.0 | 0.0 | 0.00 | 0.00 | 0.00 | 81 | 1007.5 |
| 20260510020203 | 62 | 101 | 0.0 | 0.0 | 0.00 | 0.00 | 0.00 | 80 | 1007.5 |
| 20260510015704 | 62 | 101 | 0.0 | 0.0 | 0.00 | 0.00 | 0.00 | 79 | 1007.5 |
| 20260510015204 | 63 | 101 | 0.0 | 0.0 | 0.00 | 0.00 | 0.00 | 79 | 1007.5 |
| 20260510014704 | 63 | 101 | 0.0 | 0.0 | 0.00 | 0.00 | 0.00 | 78 | 1007.5 |
| 20260510014203 | 63 | 101 | 0.0 | 0.0 | 0.00 | 0.00 | 0.00 | 77 | 1007.5 |
| 20260510013703 | 63 | 101 | 0.0 | 0.0 | 0.00 | 0.00 | 0.00 | 77 | 1007.5 |
| 20260510013204 | 63 | 101 | 0.0 | 0.0 | 0.00 | 0.00 | 0.00 | 77 | 1007.5 |
| 20260510012703 | 64 | 101 | 0.0 | 0.0 | 0.00 | 0.00 | 0.00 | 76 | 1007.5 |
| 20260510012203 | 64 | 101 | 0.0 | 0.0 | 0.00 | 0.00 | 0.00 | 75 | 1007.5 |
| 20260510011703 | 64 | 101 | 0.0 | 0.0 | 0.00 | 0.00 | 0.00 | 75 | 1007.5 |
| 20260510011204 | 64 | 101 | 0.0 | 0.0 | 0.00 | 0.00 | 0.00 | 75 | 1007.5 |
| 20260510010704 | 65 | 101 | 0.0 | 0.0 | 0.00 | 0.00 | 0.00 | 74 | 1006.7 |
| 20260510010203 | 65 | 101 | 0.0 | 0.0 | 0.00 | 0.00 | 0.00 | 73 | 1006.7 |
| 20260510005703 | 65 | 101 | 0.0 | 0.0 | 0.00 | 0.00 | 0.00 | 73 | 1006.7 |
| 20260510005203 | 66 | 101 | 0.0 | 0.0 | 0.00 | 0.00 | 0.00 | 72 | 1006.7 |
| 20260510004703 | 66 | 101 | 0.0 | 0.0 | 0.00 | 0.00 | 0.00 | 71 | 1006.7 |
| 20260510004203 | 66 | 101 | 0.0 | 0.0 | 0.00 | 0.00 | 0.00 | 70 | 1006.7 |
| 20260510003704 | 67 | 101 | 0.0 | 0.0 | 0.00 | 0.00 | 0.00 | 69 | 1006.7 |
| 20260510003204 | 67 | 101 | 0.0 | 0.0 | 0.00 | 0.00 | 0.00 | 69 | 1006.7 |
| 20260510002205 | 68 | 132 | 0.0 | 0.0 | 0.00 | 0.00 | 0.00 | 67 | 1006.7 |
| 20260510001705 | 69 | 132 | 0.0 | 0.0 | 0.00 | 0.00 | 0.00 | 66 | 1006.7 |
| 20260510001205 | 69 | 132 | 0.0 | 0.0 | 0.00 | 0.00 | 0.00 | 65 | 1006.7 |
| 20260510000705 | 70 | 132 | 0.0 | 0.0 | 0.00 | 0.00 | 0.00 | 65 | 1006.7 |
| 20260510000206 | 70 | 132 | 0.0 | 0.0 | 0.00 | 0.00 | 0.00 | 64 | 1006.7 |
| 20260509235705 | 71 | 132 | 0.0 | 0.0 | 0.00 | 0.00 | 0.00 | 63 | 1006.7 |
| 20260509235205 | 71 | 132 | 0.0 | 0.0 | 0.00 | 0.00 | 0.00 | 63 | 1006.7 |
| 20260509234705 | 71 | 132 | 0.0 | 0.0 | 0.00 | 0.00 | 0.00 | 62 | 1006.5 |
| 20260509233704 | 72 | 132 | 0.0 | 0.0 | 0.00 | 0.00 | 0.00 | 60 | 1006.5 |
| 20260509233205 | 73 | 86 | 0.0 | 0.0 | 0.00 | 0.00 | 0.00 | 60 | 1006.5 |
| 20260509232705 | 73 | 80 | 0.0 | 0.0 | 0.00 | 0.00 | 0.00 | 59 | 1006.5 |
| 20260509232205 | 73 | 80 | 0.0 | 0.9 | 0.00 | 0.00 | 0.00 | 58 | 1006.5 |
| 20260509231205 | 74 | 243 | 0.0 | 0.0 | 0.00 | 0.00 | 0.00 | 57 | 1006.5 |
| 20260509230705 | 74 | 219 | 0.0 | 0.0 | 0.00 | 0.00 | 0.00 | 58 | 1006.5 |
| 20260509225705 | 74 | 219 | 0.0 | 2.6 | 0.00 | 0.00 | 0.00 | 56 | 1006.5 |
| 20260509225205 | 74 | 37 | 0.0 | 0.0 | 0.00 | 0.00 | 0.00 | 57 | 1006.5 |
| 20260509224705 | 74 | 290 | 0.0 | 0.0 | 0.00 | 0.00 | 0.00 | 58 | 1006.5 |
| 20260509224205 | 74 | 296 | 0.0 | 0.0 | 0.00 | 0.00 | 0.00 | 58 | 1006.5 |
| 20260509223705 | 74 | 269 | 0.0 | 0.9 | 0.00 | 0.00 | 0.00 | 57 | 1006.5 |
| 20260509223205 | 74 | 139 | 0.0 | 1.7 | 0.00 | 0.00 | 0.00 | 57 | 1006.5 |
| 20260509222705 | 74 | 32 | 0.0 | 0.0 | 0.00 | 0.00 | 0.00 | 60 | 1006.5 |
| 20260509221705 | 74 | 33 | 0.0 | 0.0 | 0.00 | 0.00 | 0.00 | 58 | 1006.4 |
| 20260509221205 | 74 | 25 | 0.0 | 0.0 | 0.00 | 0.00 | 0.00 | 59 | 1006.4 |
| 20260509220705 | 74 | 25 | 0.0 | 0.0 | 0.00 | 0.00 | 0.00 | 60 | 1006.4 |
| 20260509220205 | 74 | 284 | 0.0 | 0.9 | 0.00 | 0.00 | 0.00 | 58 | 1006.4 |
| 20260509215205 | 74 | 191 | 0.0 | 1.7 | 0.00 | 0.00 | 0.00 | 58 | 1006.4 |
| 20260509214205 | 74 | 344 | 0.0 | 2.6 | 0.00 | 0.00 | 0.00 | 57 | 1006.4 |
| 20260509213704 | 75 | 217 | 0.9 | 4.3 | 0.00 | 0.00 | 0.00 | 58 | 1006.4 |
| 20260509213204 | 74 | 84 | 0.0 | 0.9 | 0.00 | 0.00 | 0.00 | 58 | 1006.4 |
| 20260509212705 | 74 | 218 | 0.0 | 2.6 | 0.00 | 0.00 | 0.00 | 57 | 1006.3 |
| 20260509211705 | 74 | 171 | 0.0 | 0.0 | 0.00 | 0.00 | 0.00 | 58 | 1006.3 |
| 20260509211205 | 74 | 197 | 0.0 | 1.7 | 0.00 | 0.00 | 0.00 | 58 | 1006.4 |
| 20260509210704 | 74 | 157 | 0.9 | 2.6 | 0.00 | 0.00 | 0.00 | 57 | 1006.4 |
| 20260509210205 | 74 | 240 | 0.0 | 2.6 | 0.00 | 0.00 | 0.00 | 57 | 1006.4 |
| 20260509205204 | 74 | 240 | 0.0 | 0.0 | 0.00 | 0.00 | 0.00 | 57 | 1006.4 |
| 20260509204705 | 74 | 355 | 0.0 | 1.7 | 0.00 | 0.00 | 0.00 | 57 | 1006.4 |
| 20260509204205 | 74 | 242 | 0.9 | 2.6 | 0.00 | 0.00 | 0.00 | 57 | 1006.4 |
| 20260509203704 | 74 | 258 | 0.9 | 2.6 | 0.00 | 0.00 | 0.00 | 56 | 1006.4 |
| 20260509203205 | 75 | 220 | 0.0 | 0.9 | 0.00 | 0.00 | 0.00 | 57 | 1006.4 |
| 20260509202704 | 74 | 92 | 0.0 | 2.6 | 0.00 | 0.00 | 0.00 | 58 | 1006.4 |
| 20260509202205 | 74 | 193 | 0.0 | 2.6 | 0.00 | 0.00 | 0.00 | 57 | 1006.4 |
| 20260509201704 | 74 | 225 | 0.9 | 4.3 | 0.00 | 0.00 | 0.00 | 55 | 1006.4 |
| 20260509200705 | 74 | 346 | 0.0 | 1.7 | 0.00 | 0.00 | 0.00 | 58 | 1006.5 |
| 20260509200204 | 73 | 227 | 0.0 | 1.7 | 0.00 | 0.00 | 0.00 | 58 | 1007.1 |
| 20260509195204 | 72 | 252 | 0.9 | 1.7 | 0.00 | 0.00 | 0.00 | 57 | 1007.1 |
| 20260509194704 | 73 | 326 | 0.9 | 2.6 | 0.00 | 0.00 | 0.00 | 57 | 1007.1 |
| 20260509194205 | 73 | 221 | 0.0 | 2.6 | 0.00 | 0.00 | 0.00 | 58 | 1007.1 |
| 20260509193705 | 73 | 248 | 0.0 | 0.9 | 0.00 | 0.00 | 0.00 | 57 | 1007.1 |
| 20260509192704 | 74 | 240 | 0.9 | 4.3 | 0.00 | 0.00 | 0.00 | 54 | 1007.1 |
| 20260509192205 | 75 | 308 | 0.0 | 2.6 | 0.00 | 0.00 | 0.00 | 54 | 1007.1 |
| 20260509191705 | 75 | 228 | 0.9 | 2.6 | 0.00 | 0.00 | 0.00 | 55 | 1007.1 |
| 20260509191204 | 75 | 252 | 0.9 | 2.6 | 0.00 | 0.00 | 0.00 | 54 | 1007.1 |
| 20260509190704 | 74 | 241 | 0.9 | 2.6 | 0.00 | 0.00 | 0.00 | 54 | 1007.1 |
| 20260509190205 | 74 | 275 | 0.0 | 1.7 | 0.00 | 0.00 | 0.00 | 56 | 1007.2 |
| 20260509185705 | 74 | 242 | 0.0 | 2.6 | 0.00 | 0.00 | 0.00 | 56 | 1007.6 |
| 20260509185205 | 74 | 76 | 0.0 | 2.6 | 0.00 | 0.00 | 0.00 | 56 | 1007.6 |
| 20260509184204 | 74 | 244 | 0.0 | 0.0 | 0.00 | 0.00 | 0.00 | 56 | 1007.6 |
| 20260509183705 | 74 | 236 | 0.9 | 4.3 | 0.00 | 0.00 | 0.00 | 55 | 1007.6 |
| 20260509183205 | 75 | 265 | 0.9 | 2.6 | 0.00 | 0.00 | 0.00 | 55 | 1007.6 |
| 20260509182204 | 75 | 225 | 0.0 | 2.6 | 0.00 | 0.00 | 0.00 | 56 | 1007.8 |
| 20260509181705 | 75 | 101 | 0.0 | 1.7 | 0.00 | 0.00 | 0.00 | 55 | 1007.8 |
| 20260509181204 | 74 | 109 | 0.9 | 2.6 | 0.00 | 0.00 | 0.00 | 57 | 1007.8 |
| 20260509180705 | 74 | 350 | 0.0 | 4.3 | 0.00 | 0.00 | 0.00 | 58 | 1008.9 |